Location: Squamish
(49.7000°N, 123.1500°W)
Time: 16:05:57
(UTC-07:00)

ISS - Visible Passes

Search period start: 17 October 2019 00:00
Search period end: 27 October 2019 00:00
Orbit: 411 x 421 km, 51.6° (Epoch: 17 October)

Date Brightness Start Highest point End Pass type
(mag) Time Alt. Az. Time Alt. Az. Time Alt. Az.
22 Oct -0.3 07:10:09 10° SSE 07:10:54 11° SE 07:11:39 10° ESE visible
24 Oct -1.3 07:07:22 10° SSW 07:10:05 23° SE 07:12:48 10° E visible
25 Oct -0.9 06:19:38 10° S 06:21:41 15° SE 06:23:44 10° E visible
26 Oct -2.7 07:06:10 10° SW 07:09:25 45° SSE 07:12:39 10° ENE visible
